When you browse on this site, cookies collect data to enhance your experience and personalize the content and advertising you see.
Visit our Privacy Policy to learn more. By continuing to use the site, you agree to this use of cookies and data.
  • In Denmark
  • List of Countries
  • For 7 days
  • Water Temperature
  • Satellite Maps
  • Weather Map
  • Weather Widgets
  • user-avatar
    Login

    Hourly Weather Jasionki

    Today, 19 February, Tuesday

    Time Temperature Precipitation Wind Pressure Humidity
    00:00 +3°C° 0 mm 2 mps 730 mmHg 79%
    01:00 +3°C° 0 mm 2 mps 730 mmHg 78%
    02:00 +2°C° 0 mm 2 mps 730 mmHg 77%
    03:00 +2°C° 0 mm 2 mps 729 mmHg 76%
    04:00 +2°C° 0 mm 2 mps 729 mmHg 76%
    05:00 +1°C° 0 mm 2 mps 729 mmHg 76%
    06:00 +1°C° 0 mm 2 mps 729 mmHg 76%
    07:00 +1°C° 0 mm 2 mps 729 mmHg 76%
    08:00 +3°C° 0 mm 2 mps 729 mmHg 72%
    09:00 +5°C° 0 mm 2 mps 729 mmHg 67%
    10:00 +7°C° 0 mm 2 mps 729 mmHg 62%
    11:00 +8°C° 0 mm 2 mps 729 mmHg 59%
    12:00 +10°C° 0 mm 2 mps 728 mmHg 56%
    13:00 +12°C° 0 mm 2 mps 728 mmHg 53%
    14:00 +12°C° 0 mm 2 mps 728 mmHg 57%
    15:00 +10°C° 0 mm 2 mps 728 mmHg 61%
    16:00 +11°C° 0 mm 1 mps 728 mmHg 65%
    17:00 +9°C° 0 mm 1 mps 728 mmHg 71%
    18:00 +6°C° 0 mm 2 mps 727 mmHg 76%
    19:00 +5°C° 0 mm 2 mps 727 mmHg 82%
    20:00 +4°C° 0 mm 2 mps 727 mmHg 82%
    21:00 +4°C° 0 mm 2 mps 727 mmHg 81%
    22:00 +3°C° 0 mm 2 mps 727 mmHg 80%
    23:00 +3°C° 0.1 mm 2 mps 727 mmHg 81%

    Tomorrow, 20 February, Wednesday

    Time Temperature Precipitation Wind Pressure Humidity
    00:00 +4°C° 0.1 mm 2 mps 727 mmHg 81%
    01:00 +4°C° 0.1 mm 2 mps 728 mmHg 81%
    02:00 +4°C° 0.4 mm 2 mps 727 mmHg 85%
    03:00 +3°C° 0.4 mm 3 mps 727 mmHg 88%
    04:00 +2°C° 0.4 mm 3 mps 727 mmHg 91%
    05:00 +2°C° 0 mm 3 mps 728 mmHg 90%
    06:00 +2°C° 0 mm 3 mps 728 mmHg 90%
    07:00 +1°C° 0 mm 3 mps 728 mmHg 89%
    08:00 +1°C° 0.1 mm 4 mps 728 mmHg 86%
    09:00 +2°C° 0.1 mm 5 mps 729 mmHg 82%
    10:00 +3°C° 0.1 mm 5 mps 729 mmHg 78%
    11:00 +3°C° 0.1 mm 6 mps 729 mmHg 75%
    12:00 +3°C° 0.1 mm 6 mps 729 mmHg 71%
    13:00 +4°C° 0.1 mm 6 mps 730 mmHg 68%
    14:00 +3°C° 0 mm 5 mps 730 mmHg 69%
    15:00 +3°C° 0 mm 5 mps 730 mmHg 69%
    16:00 +4°C° 0 mm 4 mps 730 mmHg 70%
    17:00 +3°C° 0 mm 4 mps 730 mmHg 73%
    18:00 +3°C° 0 mm 4 mps 731 mmHg 76%
    19:00 +1°C° 0 mm 4 mps 731 mmHg 79%
    20:00 +1°C° 0.1 mm 4 mps 731 mmHg 80%
    21:00 +2°C° 0.1 mm 3 mps 731 mmHg 81%
    22:00 +2°C° 0.1 mm 3 mps 732 mmHg 83%
    23:00 +2°C° 0 mm 3 mps 732 mmHg 83%

    Day after tomorrow, 21 February, Thursday

    Time Temperature Precipitation Wind Pressure Humidity
    00:00 +2°C° 0 mm 3 mps 732 mmHg 83%
    01:00 +2°C° 0 mm 3 mps 732 mmHg 83%
    02:00 +2°C° 0 mm 3 mps 732 mmHg 83%
    03:00 +2°C° 0 mm 3 mps 732 mmHg 83%
    04:00 +2°C° 0 mm 3 mps 732 mmHg 83%
    05:00 +3°C° 0 mm 2 mps 732 mmHg 83%
    06:00 +3°C° 0 mm 2 mps 732 mmHg 83%
    07:00 +3°C° 0 mm 2 mps 732 mmHg 83%
    08:00 +3°C° 0.1 mm 3 mps 732 mmHg 80%
    09:00 +4°C° 0.1 mm 3 mps 732 mmHg 76%
    10:00 +5°C° 0.1 mm 4 mps 732 mmHg 73%
    11:00 +5°C° 0.2 mm 4 mps 732 mmHg 73%
    12:00 +5°C° 0.2 mm 4 mps 732 mmHg 73%
    13:00 +6°C° 0.2 mm 4 mps 732 mmHg 73%
    14:00 +5°C° 0.4 mm 4 mps 731 mmHg 76%
    15:00 +5°C° 0.4 mm 4 mps 731 mmHg 79%
    16:00 +4°C° 0.4 mm 3 mps 731 mmHg 82%
    17:00 +4°C° 0.9 mm 4 mps 731 mmHg 83%
    18:00 +4°C° 0.9 mm 4 mps 730 mmHg 83%
    19:00 +4°C° 0.9 mm 4 mps 730 mmHg 84%
    20:00 +4°C° 0.3 mm 4 mps 730 mmHg 84%
    21:00 +3°C° 0.3 mm 5 mps 730 mmHg 84%
    22:00 +3°C° 0.3 mm 5 mps 730 mmHg 84%
    23:00 +3°C° 0.3 mm 5 mps 729 mmHg 87%

    22 February, Friday

    Time Temperature Precipitation Wind Pressure Humidity
    00:00 +4°C° 0.3 mm 4 mps 729 mmHg 89%
    01:00 +4°C° 0.3 mm 4 mps 729 mmHg 92%
    02:00 +4°C° 0.9 mm 4 mps 729 mmHg 92%
    03:00 +4°C° 0.9 mm 4 mps 729 mmHg 93%
    04:00 +3°C° 0.9 mm 5 mps 729 mmHg 93%
    05:00 +3°C° 1.1 mm 5 mps 729 mmHg 93%
    06:00 +3°C° 1.1 mm 6 mps 730 mmHg 93%
    07:00 +2°C° 1.1 mm 6 mps 730 mmHg 92%
    08:00 +1°C° 0.6 mm 6 mps 731 mmHg 90%
    09:00 -2°C° 0.6 mm 6 mps 732 mmHg 89%
    10:00 -4°C° 0.6 mm 5 mps 733 mmHg 87%
    11:00 -4°C° 0.1 mm 5 mps 734 mmHg 82%
    12:00 -4°C° 0.1 mm 5 mps 735 mmHg 77%
    13:00 -4°C° 0.1 mm 5 mps 736 mmHg 72%
    14:00 -4°C° 0 mm 5 mps 736 mmHg 70%
    15:00 -4°C° 0 mm 5 mps 737 mmHg 67%
    16:00 -4°C° 0 mm 5 mps 738 mmHg 65%
    17:00 -4°C° 0 mm 4 mps 738 mmHg 68%
    18:00 -5°C° 0 mm 4 mps 739 mmHg 71%
    19:00 -6°C° 0 mm 3 mps 740 mmHg 74%
    20:00 -6°C° 0 mm 3 mps 740 mmHg 74%
    21:00 -6°C° 0 mm 2 mps 740 mmHg 73%
    22:00 -4°C° 0 mm 1 mps 741 mmHg 72%
    23:00 -4°C° 0 mm 1 mps 741 mmHg 71%

    23 February, Saturday

    Time Temperature Precipitation Wind Pressure Humidity
    00:00 -6°C° 0 mm 2 mps 741 mmHg 70%
    01:00 -6°C° 0 mm 2 mps 741 mmHg 69%
    02:00 -6°C° 0 mm 2 mps 741 mmHg 68%
    03:00 -6°C° 0 mm 2 mps 741 mmHg 68%
    04:00 -7°C° 0 mm 3 mps 741 mmHg 68%
    05:00 -7°C° 0 mm 3 mps 741 mmHg 68%
    06:00 -7°C° 0 mm 3 mps 741 mmHg 69%
    07:00 -7°C° 0 mm 3 mps 741 mmHg 69%
    08:00 -6°C° 0 mm 3 mps 741 mmHg 62%
    09:00 -5°C° 0 mm 3 mps 741 mmHg 56%
    10:00 -4°C° 0 mm 3 mps 742 mmHg 49%
    11:00 -4°C° 0 mm 3 mps 741 mmHg 45%
    12:00 -2°C° 0 mm 3 mps 741 mmHg 41%
    13:00 -2°C° 0 mm 3 mps 741 mmHg 38%
    14:00 -2°C° 0 mm 3 mps 741 mmHg 39%
    15:00 -2°C° 0 mm 3 mps 740 mmHg 39%
    16:00 -2°C° 0 mm 3 mps 740 mmHg 40%
    17:00 -3°C° 0 mm 2 mps 740 mmHg 44%
    18:00 -3°C° 0 mm 2 mps 740 mmHg 48%
    19:00 -2°C° 0 mm 1 mps 740 mmHg 51%
    20:00 -2°C° 0 mm 1 mps 740 mmHg 52%
    21:00 -2°C° 0 mm 1 mps 740 mmHg 52%
    22:00 -2°C° 0 mm 1 mps 740 mmHg 52%
    23:00 -2°C° 0 mm 1 mps 740 mmHg 54%

    24 February, Sunday

    Time Temperature Precipitation Wind Pressure Humidity
    00:00 -2°C° 0 mm 1 mps 740 mmHg 56%
    01:00 -2°C° 0 mm 1 mps 740 mmHg 58%
    02:00 -3°C° 0 mm 1 mps 740 mmHg 59%
    03:00 -3°C° 0 mm 1 mps 740 mmHg 61%
    04:00 -3°C° 0 mm 1 mps 740 mmHg 63%
    05:00 -3°C° 0 mm 1 mps 740 mmHg 64%
    06:00 -3°C° 0 mm 1 mps 740 mmHg 66%
    07:00 -3°C° 0 mm 1 mps 741 mmHg 68%
    08:00 -2°C° 0 mm 1 mps 741 mmHg 62%
    09:00 -1°C° 0 mm 1 mps 741 mmHg 55%
    10:00 -2°C° 0 mm 2 mps 742 mmHg 49%
    11:00 -2°C° 0 mm 2 mps 742 mmHg 47%
    12:00 -1°C° 0 mm 2 mps 741 mmHg 45%
    13:00 +1°C° 0 mm 2 mps 741 mmHg 43%
    14:00 -1°C° 0 mm 2 mps 741 mmHg 45%
    15:00 -1°C° 0 mm 2 mps 741 mmHg 47%
    16:00 -1°C° 0 mm 2 mps 741 mmHg 49%
    17:00 0°C° 0 mm 1 mps 741 mmHg 54%
    18:00 -1°C° 0 mm 1 mps 741 mmHg 58%
    19:00 -2°C° 0 mm 1 mps 741 mmHg 63%
    20:00 -3°C° 0 mm 0 mps 741 mmHg 64%
    21:00 -3°C° 0 mm 0 mps 741 mmHg 65%
    22:00 -3°C° 0 mm 0 mps 741 mmHg 65%
    23:00 -3°C° 0 mm 0 mps 741 mmHg 66%
    Show more